Time,TemperatureF,DewpointF,PressureIn,WindDirection,WindDirectionDegrees,WindSpeedMPH,WindSpeedGustMPH,Humidity,HourlyPrecipIn,Conditions,Clouds,dailyrainin,SolarRadiationWatts/m^2,SoftwareType,DateUTC
2013-03-28 00:00:00,36.2,26.3,30.24,West,262,8.0,9.0,67,0.00,,,0.00,0,Wunderground v.1.15,2013-03-28 04:00:00,
2013-03-28 00:02:00,36.2,26.6,30.24,West,262,8.0,8.0,68,0.00,,,0.00,0,Wunderground v.1.15,2013-03-28 04:02:00,
2013-03-28 00:09:00,36.1,26.6,30.24,WSW,238,11.0,11.0,68,0.00,,,0.00,0,Wunderground v.1.15,2013-03-28 04:09:00,
2013-03-28 00:14:00,36.1,26.6,30.24,WNW,292,7.0,8.0,68,0.00,,,0.00,0,Wunderground v.1.15,2013-03-28 04:14:00,
2013-03-28 00:19:00,35.9,26.4,30.24,WSW,257,10.0,10.0,68,0.00,,,0.00,0,Wunderground v.1.15,2013-03-28 04:19:00,
2013-03-28 00:24:00,35.8,26.3,30.24,West,260,5.0,8.0,68,0.00,,,0.00,0,Wunderground v.1.15,2013-03-28 04:24:00,
2013-03-28 00:29:00,35.7,26.5,30.24,WSW,246,8.0,8.0,69,0.00,,,0.00,0,Wunderground v.1.15,2013-03-28 04:29:00,
2013-03-28 00:35:00,35.5,26.3,30.24,West,275,5.0,9.0,69,0.00,,,0.00,0,Wunderground v.1.15,2013-03-28 04:35:00,
2013-03-28 00:40:00,35.5,26.3,30.24,WSW,250,8.0,8.0,69,0.00,,,0.00,0,Wunderground v.1.15,2013-03-28 04:40:00,
2013-03-28 00:45:00,35.4,26.2,30.24,West,261,5.0,8.0,69,0.00,,,0.00,0,Wunderground v.1.15,2013-03-28 04:45:00,
2013-03-28 00:51:00,35.2,26.0,30.24,WNW,294,6.0,8.0,69,0.00,,,0.00,0,Wunderground v.1.15,2013-03-28 04:51:00,
2013-03-28 00:56:00,35.1,25.9,30.24,WNW,301,6.0,8.0,69,0.00,,,0.00,0,Wunderground v.1.15,2013-03-28 04:56:00,
2013-03-28 01:02:00,34.7,25.6,30.24,West,263,6.0,9.0,69,0.00,,,0.00,0,Wunderground v.1.15,2013-03-28 05:02:00,
2013-03-28 01:09:00,34.4,25.6,30.24,WSW,248,7.0,10.0,70,0.00,,,0.00,0,Wunderground v.1.15,2013-03-28 05:09:00,
2013-03-28 01:14:00,34.3,25.5,30.24,WNW,302,6.0,8.0,70,0.00,,,0.00,0,Wunderground v.1.15,2013-03-28 05:14:00,
2013-03-28 01:20:00,34.1,25.7,30.24,West,273,6.0,7.0,71,0.00,,,0.00,0,Wunderground v.1.15,2013-03-28 05:20:00,
2013-03-28 01:26:00,34.1,25.7,30.24,WSW,252,6.0,7.0,71,0.00,,,0.00,0,Wunderground v.1.15,2013-03-28 05:26:00,
2013-03-28 01:31:00,34.0,25.6,30.24,WSW,252,5.0,6.0,71,0.00,,,0.00,0,Wunderground v.1.15,2013-03-28 05:31:00,
2013-03-28 01:37:00,33.9,25.5,30.24,WNW,283,6.0,6.0,71,0.00,,,0.00,0,Wunderground v.1.15,2013-03-28 05:37:00,
2013-03-28 01:44:00,33.7,25.3,30.24,WSW,253,8.0,8.0,71,0.00,,,0.00,0,Wunderground v.1.15,2013-03-28 05:44:00,
2013-03-28 01:49:00,33.6,25.5,30.24,WSW,257,8.0,8.0,72,0.00,,,0.00,0,Wunderground v.1.15,2013-03-28 05:49:00,
2013-03-28 01:54:00,33.4,25.3,30.24,WNW,290,6.0,6.0,72,0.00,,,0.00,0,Wunderground v.1.15,2013-03-28 05:54:00,
2013-03-28 02:00:00,33.4,25.3,30.24,West,261,6.0,6.0,72,0.00,,,0.00,0,Wunderground v.1.15,2013-03-28 06:00:00,
2013-03-28 02:05:00,33.4,25.3,30.24,WNW,282,5.0,7.0,72,0.00,,,0.00,0,Wunderground v.1.15,2013-03-28 06:05:00,
2013-03-28 02:11:00,33.3,25.2,30.24,WNW,285,7.0,7.0,72,0.00,,,0.00,0,Wunderground v.1.15,2013-03-28 06:11:00,
2013-03-28 02:16:00,33.3,25.2,30.24,West,259,7.0,8.0,72,0.00,,,0.00,0,Wunderground v.1.15,2013-03-28 06:16:00,
2013-03-28 02:22:00,33.3,25.2,30.24,WNW,290,6.0,8.0,72,0.00,,,0.00,0,Wunderground v.1.15,2013-03-28 06:22:00,
2013-03-28 02:27:00,33.2,25.1,30.24,West,265,7.0,10.0,72,0.00,,,0.00,0,Wunderground v.1.15,2013-03-28 06:27:00,
2013-03-28 02:32:00,33.2,25.1,30.24,West,259,7.0,10.0,72,0.00,,,0.00,0,Wunderground v.1.15,2013-03-28 06:32:00,
2013-03-28 02:37:00,33.3,25.2,30.24,WSW,253,7.0,13.0,72,0.00,,,0.00,0,Wunderground v.1.15,2013-03-28 06:37:00,
2013-03-28 02:43:00,33.3,25.2,30.24,West,270,5.0,8.0,72,0.00,,,0.00,0,Wunderground v.1.15,2013-03-28 06:43:00,
2013-03-28 02:48:00,33.3,25.2,30.24,WSW,248,11.0,11.0,72,0.00,,,0.00,0,Wunderground v.1.15,2013-03-28 06:48:00,
2013-03-28 02:53:00,33.3,25.2,30.24,West,280,5.0,7.0,72,0.00,,,0.00,0,Wunderground v.1.15,2013-03-28 06:53:00,
2013-03-28 02:58:00,33.4,25.3,30.24,West,259,6.0,9.0,72,0.00,,,0.00,0,Wunderground v.1.15,2013-03-28 06:58:00,
2013-03-28 03:03:00,33.4,25.3,30.25,WSW,254,7.0,7.0,72,0.00,,,0.00,0,Wunderground v.1.15,2013-03-28 07:03:00,
2013-03-28 03:08:00,33.4,25.7,30.25,WSW,254,6.0,8.0,73,0.00,,,0.00,0,Wunderground v.1.15,2013-03-28 07:08:00,
2013-03-28 03:13:00,33.4,25.7,30.24,NW,315,4.0,9.0,73,0.00,,,0.00,0,Wunderground v.1.15,2013-03-28 07:13:00,
2013-03-28 03:18:00,33.4,25.7,30.24,West,280,6.0,9.0,73,0.00,,,0.00,0,Wunderground v.1.15,2013-03-28 07:18:00,
2013-03-28 03:23:00,33.4,25.7,30.24,West,259,5.0,9.0,73,0.00,,,0.00,0,Wunderground v.1.15,2013-03-28 07:23:00,
2013-03-28 03:30:00,33.4,25.7,30.24,West,259,5.0,9.0,73,0.00,,,0.00,0,Wunderground v.1.15,2013-03-28 07:30:00,
2013-03-28 03:35:00,33.4,25.7,30.24,WNW,289,4.0,7.0,73,0.00,,,0.00,0,Wunderground v.1.15,2013-03-28 07:35:00,
2013-03-28 03:40:00,33.4,25.7,30.24,West,277,6.0,6.0,73,0.00,,,0.00,0,Wunderground v.1.15,2013-03-28 07:40:00,
2013-03-28 03:45:00,33.5,25.8,30.24,WNW,302,6.0,9.0,73,0.00,,,0.00,0,Wunderground v.1.15,2013-03-28 07:45:00,
2013-03-28 03:50:00,33.5,25.8,30.24,WNW,284,4.0,6.0,73,0.00,,,0.00,0,Wunderground v.1.15,2013-03-28 07:50:00,
2013-03-28 03:55:00,33.5,25.8,30.24,WNW,287,5.0,7.0,73,0.00,,,0.00,0,Wunderground v.1.15,2013-03-28 07:55:00,
2013-03-28 04:01:00,33.5,25.8,30.24,WNW,294,5.0,6.0,73,0.00,,,0.00,0,Wunderground v.1.15,2013-03-28 08:01:00,
2013-03-28 04:06:00,33.4,25.7,30.24,WNW,288,5.0,7.0,73,0.00,,,0.00,0,Wunderground v.1.15,2013-03-28 08:06:00,
2013-03-28 04:11:00,33.3,25.6,30.24,West,279,5.0,6.0,73,0.00,,,0.00,0,Wunderground v.1.15,2013-03-28 08:11:00,
2013-03-28 04:16:00,33.1,25.4,30.24,WNW,288,6.0,6.0,73,0.00,,,0.00,0,Wunderground v.1.15,2013-03-28 08:16:00,
2013-03-28 04:21:00,32.9,25.5,30.24,West,280,5.0,5.0,74,0.00,,,0.00,0,Wunderground v.1.15,2013-03-28 08:21:00,
2013-03-28 04:26:00,32.6,25.2,30.24,West,279,5.0,7.0,74,0.00,,,0.00,0,Wunderground v.1.15,2013-03-28 08:26:00,
2013-03-28 04:32:00,32.5,25.1,30.24,West,259,5.0,8.0,74,0.00,,,0.00,0,Wunderground v.1.15,2013-03-28 08:32:00,
2013-03-28 04:37:00,32.4,25.0,30.25,WNW,286,6.0,8.0,74,0.00,,,0.00,0,Wunderground v.1.15,2013-03-28 08:37:00,
2013-03-28 04:42:00,32.4,25.0,30.25,WSW,245,7.0,7.0,74,0.00,,,0.00,0,Wunderground v.1.15,2013-03-28 08:42:00,
2013-03-28 04:47:00,32.4,25.0,30.25,WSW,256,5.0,8.0,74,0.00,,,0.00,0,Wunderground v.1.15,2013-03-28 08:47:00,
2013-03-28 04:52:00,32.3,24.9,30.25,WNW,300,4.0,9.0,74,0.00,,,0.00,0,Wunderground v.1.15,2013-03-28 08:52:00,
2013-03-28 04:57:00,32.2,24.8,30.25,WSW,250,7.0,9.0,74,0.00,,,0.00,0,Wunderground v.1.15,2013-03-28 08:57:00,
2013-03-28 05:02:00,32.1,24.7,30.24,WNW,283,6.0,8.0,74,0.00,,,0.00,0,Wunderground v.1.15,2013-03-28 09:02:00,
2013-03-28 05:08:00,32.0,25.0,30.25,West,269,6.0,8.0,75,0.00,,,0.00,0,Wunderground v.1.15,2013-03-28 09:08:00,
2013-03-28 05:13:00,31.9,24.9,30.25,WNW,299,6.0,7.0,75,0.00,,,0.00,0,Wunderground v.1.15,2013-03-28 09:13:00,
2013-03-28 05:18:00,31.8,24.8,30.25,WSW,256,5.0,8.0,75,0.00,,,0.00,0,Wunderground v.1.15,2013-03-28 09:18:00,
2013-03-28 05:23:00,31.7,24.7,30.25,West,274,7.0,7.0,75,0.00,,,0.00,0,Wunderground v.1.15,2013-03-28 09:23:00,
2013-03-28 05:28:00,31.6,24.6,30.24,WNW,293,3.0,8.0,75,0.00,,,0.00,0,Wunderground v.1.15,2013-03-28 09:28:00,
2013-03-28 05:34:00,31.5,24.8,30.24,WNW,295,8.0,8.0,76,0.00,,,0.00,0,Wunderground v.1.15,2013-03-28 09:34:00,
2013-03-28 05:39:00,31.4,24.7,30.25,WNW,282,5.0,8.0,76,0.00,,,0.00,0,Wunderground v.1.15,2013-03-28 09:39:00,
2013-03-28 05:44:00,31.4,24.7,30.25,West,259,7.0,9.0,76,0.00,,,0.00,0,Wunderground v.1.15,2013-03-28 09:44:00,
2013-03-28 05:49:00,31.1,24.4,30.25,WNW,289,4.0,9.0,76,0.00,,,0.00,0,Wunderground v.1.15,2013-03-28 09:49:00,
2013-03-28 05:55:00,31.0,24.3,30.25,WSW,247,8.0,8.0,76,0.00,,,0.00,0,Wunderground v.1.15,2013-03-28 09:55:00,
2013-03-28 06:00:00,30.8,24.1,30.25,WSW,250,9.0,9.0,76,0.00,,,0.00,0,Wunderground v.1.15,2013-03-28 10:00:00,
2013-03-28 06:05:00,30.6,24.2,30.25,WSW,245,6.0,8.0,77,0.00,,,0.00,0,Wunderground v.1.15,2013-03-28 10:05:00,
2013-03-28 06:10:00,30.4,24.1,30.25,West,259,5.0,5.0,77,0.00,,,0.00,0,Wunderground v.1.15,2013-03-28 10:10:00,
2013-03-28 06:15:00,30.3,24.3,30.25,West,259,5.0,10.0,78,0.00,,,0.00,0,Wunderground v.1.15,2013-03-28 10:15:00,
2013-03-28 06:20:00,30.2,24.2,30.25,West,264,7.0,7.0,78,0.00,,,0.00,0,Wunderground v.1.15,2013-03-28 10:20:00,
2013-03-28 06:25:00,30.1,24.1,30.25,WSW,248,6.0,7.0,78,0.00,,,0.00,0,Wunderground v.1.15,2013-03-28 10:25:00,
2013-03-28 06:30:00,30.2,24.2,30.25,WSW,239,10.0,10.0,78,0.00,,,0.00,0,Wunderground v.1.15,2013-03-28 10:30:00,
2013-03-28 06:36:00,30.2,24.2,30.25,WNW,286,6.0,10.0,78,0.00,,,0.00,0,Wunderground v.1.15,2013-03-28 10:36:00,
2013-03-28 06:41:00,30.2,24.2,30.25,West,262,9.0,9.0,78,0.00,,,0.00,0,Wunderground v.1.15,2013-03-28 10:41:00,
2013-03-28 06:46:00,30.2,24.2,30.25,WSW,252,7.0,9.0,78,0.00,,,0.00,0,Wunderground v.1.15,2013-03-28 10:46:00,
2013-03-28 06:51:00,30.2,24.2,30.25,WSW,241,8.0,11.0,78,0.00,,,0.00,0,Wunderground v.1.15,2013-03-28 10:51:00,
2013-03-28 06:56:00,30.2,24.2,30.25,WSW,258,7.0,13.0,78,0.00,,,0.00,0,Wunderground v.1.15,2013-03-28 10:56:00,
2013-03-28 07:01:00,30.2,24.2,30.25,WSW,254,6.0,8.0,78,0.00,,,0.00,0,Wunderground v.1.15,2013-03-28 11:01:00,
2013-03-28 07:07:00,30.1,24.1,30.25,NW,323,8.0,11.0,78,0.00,,,0.00,0,Wunderground v.1.15,2013-03-28 11:07:00,
2013-03-28 07:12:00,30.2,24.2,30.26,WSW,248,9.0,9.0,78,0.00,,,0.00,0,Wunderground v.1.15,2013-03-28 11:12:00,
2013-03-28 07:17:00,30.2,24.2,30.26,West,273,4.0,9.0,78,0.00,,,0.00,0,Wunderground v.1.15,2013-03-28 11:17:00,
2013-03-28 07:22:00,30.2,24.2,30.26,West,279,8.0,8.0,78,0.00,,,0.00,0,Wunderground v.1.15,2013-03-28 11:22:00,
2013-03-28 07:27:00,30.1,24.1,30.27,West,275,5.0,11.0,78,0.00,,,0.00,0,Wunderground v.1.15,2013-03-28 11:27:00,
2013-03-28 07:32:00,30.1,24.1,30.27,West,265,9.0,9.0,78,0.00,,,0.00,5,Wunderground v.1.15,2013-03-28 11:32:00,
2013-03-28 07:37:00,30.1,24.1,30.27,West,264,9.0,9.0,78,0.00,,,0.00,9,Wunderground v.1.15,2013-03-28 11:37:00,
2013-03-28 07:42:00,30.1,24.1,30.27,WSW,248,8.0,8.0,78,0.00,,,0.00,11,Wunderground v.1.15,2013-03-28 11:42:00,
2013-03-28 07:48:00,30.3,24.3,30.27,West,263,5.0,9.0,78,0.00,,,0.00,14,Wunderground v.1.15,2013-03-28 11:48:00,
2013-03-28 07:53:00,30.4,24.1,30.27,WSW,247,5.0,7.0,77,0.00,,,0.00,16,Wunderground v.1.15,2013-03-28 11:53:00,
2013-03-28 07:58:00,30.4,24.1,30.27,SW,234,9.0,9.0,77,0.00,,,0.00,26,Wunderground v.1.15,2013-03-28 11:58:00,
2013-03-28 08:03:00,30.6,24.2,30.27,WSW,256,5.0,9.0,77,0.00,,,0.00,37,Wunderground v.1.15,2013-03-28 12:03:00,
2013-03-28 08:08:00,30.7,24.3,30.28,West,263,6.0,10.0,77,0.00,,,0.00,39,Wunderground v.1.15,2013-03-28 12:08:00,
2013-03-28 08:13:00,30.8,24.4,30.28,WSW,246,7.0,9.0,77,0.00,,,0.00,72,Wunderground v.1.15,2013-03-28 12:13:00,
2013-03-28 08:18:00,31.0,24.6,30.28,WNW,286,4.0,9.0,77,0.00,,,0.00,58,Wunderground v.1.15,2013-03-28 12:18:00,
2013-03-28 08:24:00,31.2,24.8,30.28,West,276,3.0,9.0,77,0.00,,,0.00,72,Wunderground v.1.15,2013-03-28 12:24:00,
2013-03-28 08:29:00,31.5,25.1,30.28,WSW,252,8.0,11.0,77,0.00,,,0.00,69,Wunderground v.1.15,2013-03-28 12:29:00,
2013-03-28 08:34:00,31.9,25.2,30.28,West,272,8.0,11.0,76,0.00,,,0.00,62,Wunderground v.1.15,2013-03-28 12:34:00,
2013-03-28 08:40:00,32.1,25.4,30.28,West,267,6.0,11.0,76,0.00,,,0.00,86,Wunderground v.1.15,2013-03-28 12:40:00,
2013-03-28 08:45:00,32.4,25.7,30.28,WNW,294,6.0,9.0,76,0.00,,,0.00,160,Wunderground v.1.15,2013-03-28 12:45:00,
2013-03-28 08:50:00,32.7,25.6,30.28,West,261,10.0,10.0,75,0.00,,,0.00,134,Wunderground v.1.15,2013-03-28 12:50:00,
2013-03-28 08:55:00,32.9,25.8,30.28,WNW,298,8.0,10.0,75,0.00,,,0.00,237,Wunderground v.1.15,2013-03-28 12:55:00,
2013-03-28 09:00:00,33.3,26.2,30.28,West,266,6.0,6.0,75,0.00,,,0.00,260,Wunderground v.1.15,2013-03-28 13:00:00,
2013-03-28 09:05:00,33.9,26.5,30.28,WNW,290,11.0,11.0,74,0.00,,,0.00,86,Wunderground v.1.15,2013-03-28 13:05:00,
2013-03-28 09:10:00,34.0,26.6,30.28,West,275,8.0,8.0,74,0.00,,,0.00,100,Wunderground v.1.15,2013-03-28 13:10:00,
2013-03-28 09:15:00,34.0,26.6,30.28,WNW,292,5.0,9.0,74,0.00,,,0.00,105,Wunderground v.1.15,2013-03-28 13:15:00,
2013-03-28 09:20:00,34.1,26.7,30.28,West,261,7.0,7.0,74,0.00,,,0.00,132,Wunderground v.1.15,2013-03-28 13:20:00,
2013-03-28 09:25:00,34.4,27.0,30.28,WNW,292,5.0,8.0,74,0.00,,,0.00,185,Wunderground v.1.15,2013-03-28 13:25:00,
2013-03-28 09:31:00,35.2,27.4,30.29,West,281,5.0,8.0,73,0.00,,,0.00,301,Wunderground v.1.15,2013-03-28 13:31:00,
2013-03-28 09:36:00,35.9,27.7,30.29,WNW,302,7.0,9.0,72,0.00,,,0.00,237,Wunderground v.1.15,2013-03-28 13:36:00,
2013-03-28 09:41:00,36.5,28.0,30.29,WNW,287,6.0,7.0,71,0.00,,,0.00,274,Wunderground v.1.15,2013-03-28 13:41:00,
2013-03-28 09:46:00,37.1,28.2,30.29,WNW,286,5.0,9.0,70,0.00,,,0.00,448,Wunderground v.1.15,2013-03-28 13:46:00,
2013-03-28 09:51:00,37.4,28.2,30.29,WNW,283,5.0,6.0,69,0.00,,,0.00,420,Wunderground v.1.15,2013-03-28 13:51:00,
2013-03-28 09:57:00,38.7,29.0,30.29,WNW,297,7.0,9.0,68,0.00,,,0.00,503,Wunderground v.1.15,2013-03-28 13:57:00,
2013-03-28 10:02:00,39.4,29.0,30.29,West,276,8.0,12.0,66,0.00,,,0.00,499,Wunderground v.1.15,2013-03-28 14:02:00,
2013-03-28 10:07:00,39.7,28.9,30.29,NW,306,8.0,12.0,65,0.00,,,0.00,564,Wunderground v.1.15,2013-03-28 14:07:00,
2013-03-28 10:12:00,40.3,29.1,30.29,NW,312,4.0,8.0,64,0.00,,,0.00,357,Wunderground v.1.15,2013-03-28 14:12:00,
2013-03-28 10:17:00,40.3,28.7,30.29,NW,314,8.0,8.0,63,0.00,,,0.00,366,Wunderground v.1.15,2013-03-28 14:17:00,
2013-03-28 10:22:00,40.3,28.7,30.29,WNW,299,5.0,9.0,63,0.00,,,0.00,425,Wunderground v.1.15,2013-03-28 14:22:00,
2013-03-28 10:27:00,40.5,28.9,30.29,West,269,10.0,10.0,63,0.00,,,0.00,366,Wunderground v.1.15,2013-03-28 14:27:00,
2013-03-28 10:32:00,40.5,29.3,30.29,West,269,4.0,9.0,64,0.00,,,0.00,322,Wunderground v.1.15,2013-03-28 14:32:00,
2013-03-28 10:37:00,40.9,28.9,30.29,NW,311,6.0,9.0,62,0.00,,,0.00,360,Wunderground v.1.15,2013-03-28 14:37:00,
2013-03-28 10:43:00,41.3,28.9,30.29,NW,317,7.0,9.0,61,0.00,,,0.00,378,Wunderground v.1.15,2013-03-28 14:43:00,
2013-03-28 10:48:00,41.2,28.8,30.29,West,267,11.0,11.0,61,0.00,,,0.00,338,Wunderground v.1.15,2013-03-28 14:48:00,
2013-03-28 10:53:00,41.6,29.9,30.29,WNW,287,7.0,9.0,63,0.00,,,0.00,348,Wunderground v.1.15,2013-03-28 14:53:00,
2013-03-28 10:58:00,41.2,28.8,30.29,West,265,7.0,10.0,61,0.00,,,0.00,436,Wunderground v.1.15,2013-03-28 14:58:00,
2013-03-28 11:03:00,41.5,29.0,30.29,West,261,9.0,9.0,61,0.00,,,0.00,383,Wunderground v.1.15,2013-03-28 15:03:00,
2013-03-28 11:08:00,41.7,28.8,30.29,NW,306,5.0,10.0,60,0.00,,,0.00,390,Wunderground v.1.15,2013-03-28 15:08:00,
2013-03-28 11:13:00,42.2,28.5,30.30,WNW,290,10.0,12.0,58,0.00,,,0.00,406,Wunderground v.1.15,2013-03-28 15:13:00,
2013-03-28 11:19:00,42.0,29.1,30.30,NW,304,3.0,12.0,60,0.00,,,0.00,350,Wunderground v.1.15,2013-03-28 15:19:00,
2013-03-28 11:24:00,42.3,29.0,30.30,WNW,286,5.0,10.0,59,0.00,,,0.00,350,Wunderground v.1.15,2013-03-28 15:24:00,
2013-03-28 11:30:00,42.7,29.8,30.30,NW,317,7.0,10.0,60,0.00,,,0.00,359,Wunderground v.1.15,2013-03-28 15:30:00,
2013-03-28 11:35:00,43.1,29.7,30.30,NW,325,6.0,10.0,59,0.00,,,0.00,392,Wunderground v.1.15,2013-03-28 15:35:00,
2013-03-28 11:40:00,43.2,29.8,30.30,WSW,257,13.0,13.0,59,0.00,,,0.00,420,Wunderground v.1.15,2013-03-28 15:40:00,
2013-03-28 11:45:00,43.0,29.2,30.30,NW,307,7.0,11.0,58,0.00,,,0.00,431,Wunderground v.1.15,2013-03-28 15:45:00,
2013-03-28 11:50:00,43.6,29.4,30.30,NW,310,5.0,7.0,57,0.00,,,0.00,436,Wunderground v.1.15,2013-03-28 15:50:00,
2013-03-28 11:55:00,44.0,30.2,30.30,WNW,296,4.0,8.0,58,0.00,,,0.00,404,Wunderground v.1.15,2013-03-28 15:55:00,
2013-03-28 12:00:00,44.8,30.9,30.30,NW,315,5.0,5.0,58,0.00,,,0.00,462,Wunderground v.1.15,2013-03-28 16:00:00,
2013-03-28 12:05:00,44.9,29.7,30.30,WNW,300,7.0,9.0,55,0.00,,,0.00,418,Wunderground v.1.15,2013-03-28 16:05:00,
2013-03-28 12:10:00,44.7,30.0,30.30,WNW,297,7.0,7.0,56,0.00,,,0.00,394,Wunderground v.1.15,2013-03-28 16:10:00,
2013-03-28 12:16:00,44.9,30.6,30.29,WNW,303,4.0,7.0,57,0.00,,,0.00,399,Wunderground v.1.15,2013-03-28 16:16:00,
2013-03-28 12:21:00,45.4,30.6,30.29,West,265,1.0,6.0,56,0.00,,,0.00,462,Wunderground v.1.15,2013-03-28 16:21:00,
2013-03-28 12:26:00,45.6,30.3,30.29,WSW,254,5.0,10.0,55,0.00,,,0.00,494,Wunderground v.1.15,2013-03-28 16:26:00,
2013-03-28 12:32:00,45.6,29.4,30.29,West,273,6.0,10.0,53,0.00,,,0.00,533,Wunderground v.1.15,2013-03-28 16:32:00,
2013-03-28 12:37:00,46.3,31.0,30.29,WNW,290,7.0,10.0,55,0.00,,,0.00,506,Wunderground v.1.15,2013-03-28 16:37:00,
2013-03-28 12:42:00,46.1,29.4,30.29,WSW,248,7.0,10.0,52,0.00,,,0.00,552,Wunderground v.1.15,2013-03-28 16:42:00,
2013-03-28 12:47:00,46.8,30.1,30.29,NW,311,8.0,10.0,52,0.00,,,0.00,617,Wunderground v.1.15,2013-03-28 16:47:00,
2013-03-28 12:52:00,47.1,30.8,30.29,WNW,294,4.0,7.0,53,0.00,,,0.00,564,Wunderground v.1.15,2013-03-28 16:52:00,
2013-03-28 12:57:00,47.4,30.6,30.29,WSW,257,9.0,11.0,52,0.00,,,0.00,599,Wunderground v.1.15,2013-03-28 16:57:00,
2013-03-28 13:02:00,47.5,31.2,30.28,West,266,3.0,7.0,53,0.00,,,0.00,619,Wunderground v.1.15,2013-03-28 17:02:00,
2013-03-28 13:08:00,48.3,30.5,30.28,West,265,6.0,10.0,50,0.00,,,0.00,587,Wunderground v.1.15,2013-03-28 17:08:00,
2013-03-28 13:13:00,49.1,31.7,30.28,West,261,4.0,10.0,51,0.00,,,0.00,1106,Wunderground v.1.15,2013-03-28 17:13:00,
2013-03-28 13:18:00,50.1,32.2,30.28,NW,311,8.0,10.0,50,0.00,,,0.00,1013,Wunderground v.1.15,2013-03-28 17:18:00,
2013-03-28 13:23:00,50.0,30.5,30.28,WNW,286,4.0,8.0,47,0.00,,,0.00,823,Wunderground v.1.15,2013-03-28 17:23:00,
2013-03-28 13:28:00,49.4,31.0,30.27,West,276,7.0,10.0,49,0.00,,,0.00,823,Wunderground v.1.15,2013-03-28 17:28:00,
2013-03-28 13:33:00,49.6,30.7,30.28,NNW,343,6.0,8.0,48,0.00,,,0.00,510,Wunderground v.1.15,2013-03-28 17:33:00,
2013-03-28 13:39:00,49.0,29.6,30.27,NW,305,7.0,9.0,47,0.00,,,0.00,501,Wunderground v.1.15,2013-03-28 17:39:00,
2013-03-28 13:44:00,49.6,30.2,30.28,WSW,246,8.0,9.0,47,0.00,,,0.00,552,Wunderground v.1.15,2013-03-28 17:44:00,
2013-03-28 13:50:00,50.0,30.5,30.27,WSW,251,8.0,9.0,47,0.00,,,0.00,603,Wunderground v.1.15,2013-03-28 17:50:00,
2013-03-28 13:55:00,50.5,29.9,30.27,NW,309,8.0,11.0,45,0.00,,,0.00,429,Wunderground v.1.15,2013-03-28 17:55:00,
2013-03-28 14:00:00,49.6,29.1,30.27,NW,306,5.0,11.0,45,0.00,,,0.00,427,Wunderground v.1.15,2013-03-28 18:00:00,
2013-03-28 14:05:00,49.2,28.7,30.27,West,265,8.0,10.0,45,0.00,,,0.00,473,Wunderground v.1.15,2013-03-28 18:05:00,
2013-03-28 14:10:00,49.8,30.4,30.27,NW,311,6.0,8.0,47,0.00,,,0.00,485,Wunderground v.1.15,2013-03-28 18:10:00,
2013-03-28 14:16:00,49.7,29.7,30.27,NW,304,8.0,12.0,46,0.00,,,0.00,533,Wunderground v.1.15,2013-03-28 18:16:00,
2013-03-28 14:21:00,49.3,29.4,30.27,WNW,290,8.0,10.0,46,0.00,,,0.00,487,Wunderground v.1.15,2013-03-28 18:21:00,
2013-03-28 14:26:00,49.6,30.2,30.27,NW,306,5.0,10.0,47,0.00,,,0.00,478,Wunderground v.1.15,2013-03-28 18:26:00,
2013-03-28 14:31:00,50.6,30.0,30.27,NW,306,10.0,10.0,45,0.00,,,0.00,522,Wunderground v.1.15,2013-03-28 18:31:00,
2013-03-28 14:36:00,49.8,29.8,30.27,NW,320,8.0,10.0,46,0.00,,,0.00,598,Wunderground v.1.15,2013-03-28 18:36:00,
2013-03-28 14:41:00,50.1,30.1,30.26,West,277,7.0,7.0,46,0.00,,,0.00,582,Wunderground v.1.15,2013-03-28 18:41:00,
2013-03-28 14:46:00,50.7,31.7,30.26,West,270,5.0,12.0,48,0.00,,,0.00,499,Wunderground v.1.15,2013-03-28 18:46:00,
2013-03-28 14:51:00,51.2,30.6,30.26,WNW,288,3.0,6.0,45,0.00,,,0.00,390,Wunderground v.1.15,2013-03-28 18:51:00,
2013-03-28 14:56:00,50.9,30.3,30.26,NW,311,8.0,11.0,45,0.00,,,0.00,381,Wunderground v.1.15,2013-03-28 18:56:00,
2013-03-28 15:01:00,50.2,29.7,30.26,SW,236,6.0,8.0,45,0.00,,,0.00,374,Wunderground v.1.15,2013-03-28 19:01:00,
2013-03-28 15:06:00,50.4,29.8,30.26,WNW,303,4.0,8.0,45,0.00,,,0.00,343,Wunderground v.1.15,2013-03-28 19:06:00,
2013-03-28 15:11:00,50.5,30.5,30.26,WSW,237,8.0,10.0,46,0.00,,,0.00,350,Wunderground v.1.15,2013-03-28 19:11:00,
2013-03-28 15:16:00,50.7,30.1,30.26,WNW,288,5.0,10.0,45,0.00,,,0.00,330,Wunderground v.1.15,2013-03-28 19:16:00,
2013-03-28 15:21:00,50.6,30.6,30.26,WNW,302,3.0,6.0,46,0.00,,,0.00,302,Wunderground v.1.15,2013-03-28 19:21:00,
2013-03-28 15:27:00,50.6,29.5,30.26,West,270,5.0,10.0,44,0.00,,,0.00,250,Wunderground v.1.15,2013-03-28 19:27:00,
2013-03-28 15:32:00,50.4,29.8,30.25,WNW,284,2.0,7.0,45,0.00,,,0.00,251,Wunderground v.1.15,2013-03-28 19:32:00,
2013-03-28 15:37:00,50.4,29.8,30.25,NW,325,4.0,7.0,45,0.00,,,0.00,255,Wunderground v.1.15,2013-03-28 19:37:00,
2013-03-28 15:42:00,50.5,29.9,30.25,NNW,346,3.0,5.0,45,0.00,,,0.00,299,Wunderground v.1.15,2013-03-28 19:42:00,
2013-03-28 15:47:00,50.6,30.0,30.25,NW,318,4.0,8.0,45,0.00,,,0.00,327,Wunderground v.1.15,2013-03-28 19:47:00,
2013-03-28 15:52:00,50.7,30.7,30.25,North,5,3.0,13.0,46,0.00,,,0.00,323,Wunderground v.1.15,2013-03-28 19:52:00,
2013-03-28 15:57:00,50.8,29.6,30.25,WNW,286,8.0,13.0,44,0.00,,,0.00,327,Wunderground v.1.15,2013-03-28 19:57:00,
2013-03-28 16:03:00,50.9,30.3,30.25,WNW,290,8.0,8.0,45,0.00,,,0.00,288,Wunderground v.1.15,2013-03-28 20:03:00,
2013-03-28 16:08:00,50.9,29.7,30.25,WNW,300,7.0,9.0,44,0.00,,,0.00,244,Wunderground v.1.15,2013-03-28 20:08:00,
2013-03-28 16:13:00,50.8,29.6,30.25,NW,315,6.0,11.0,44,0.00,,,0.00,276,Wunderground v.1.15,2013-03-28 20:13:00,
2013-03-28 16:18:00,50.9,30.3,30.25,West,265,5.0,11.0,45,0.00,,,0.00,281,Wunderground v.1.15,2013-03-28 20:18:00,
2013-03-28 16:23:00,51.0,29.8,30.25,WSW,248,7.0,16.0,44,0.00,,,0.00,258,Wunderground v.1.15,2013-03-28 20:23:00,
2013-03-28 16:28:00,51.0,30.4,30.25,WSW,244,8.0,16.0,45,0.00,,,0.00,276,Wunderground v.1.15,2013-03-28 20:28:00,
2013-03-28 16:34:00,51.0,30.9,30.25,NW,311,6.0,7.0,46,0.00,,,0.00,278,Wunderground v.1.15,2013-03-28 20:34:00,
2013-03-28 16:39:00,51.0,30.4,30.25,WNW,295,3.0,10.0,45,0.00,,,0.00,241,Wunderground v.1.15,2013-03-28 20:39:00,
2013-03-28 16:45:00,50.8,30.7,30.25,NW,306,7.0,8.0,46,0.00,,,0.00,192,Wunderground v.1.15,2013-03-28 20:45:00,
2013-03-28 16:50:00,50.6,29.5,30.25,West,275,4.0,8.0,44,0.00,,,0.00,188,Wunderground v.1.15,2013-03-28 20:50:00,
2013-03-28 16:55:00,50.3,29.2,30.25,WNW,290,7.0,10.0,44,0.00,,,0.00,167,Wunderground v.1.15,2013-03-28 20:55:00,
2013-03-28 17:00:00,50.2,29.1,30.24,NW,311,2.0,10.0,44,0.00,,,0.00,155,Wunderground v.1.15,2013-03-28 21:00:00,
2013-03-28 17:05:00,50.3,29.7,30.25,WSW,255,7.0,8.0,45,0.00,,,0.00,167,Wunderground v.1.15,2013-03-28 21:05:00,
2013-03-28 17:10:00,50.4,29.8,30.25,WSW,239,1.0,8.0,45,0.00,,,0.00,139,Wunderground v.1.15,2013-03-28 21:10:00,
2013-03-28 17:15:00,50.6,30.6,30.25,WSW,246,3.0,6.0,46,0.00,,,0.00,114,Wunderground v.1.15,2013-03-28 21:15:00,
2013-03-28 17:20:00,50.6,29.5,30.25,NW,325,4.0,4.0,44,0.00,,,0.00,113,Wunderground v.1.15,2013-03-28 21:20:00,
2013-03-28 17:25:00,50.3,29.7,30.24,WSW,247,5.0,6.0,45,0.00,,,0.00,114,Wunderground v.1.15,2013-03-28 21:25:00,
2013-03-28 17:30:00,50.4,29.3,30.24,WSW,248,1.0,4.0,44,0.00,,,0.00,93,Wunderground v.1.15,2013-03-28 21:30:00,
2013-03-28 17:35:00,50.3,29.7,30.24,SW,217,0.0,5.0,45,0.00,,,0.00,79,Wunderground v.1.15,2013-03-28 21:35:00,
2013-03-28 17:40:00,50.4,29.8,30.24,SW,233,2.0,4.0,45,0.00,,,0.00,79,Wunderground v.1.15,2013-03-28 21:40:00,
2013-03-28 17:45:00,50.4,30.4,30.24,NW,319,1.0,5.0,46,0.00,,,0.00,74,Wunderground v.1.15,2013-03-28 21:45:00,
2013-03-28 17:51:00,50.3,30.3,30.24,WNW,284,2.0,5.0,46,0.00,,,0.00,69,Wunderground v.1.15,2013-03-28 21:51:00,
2013-03-28 17:56:00,50.1,30.1,30.24,WSW,257,1.0,5.0,46,0.00,,,0.00,69,Wunderground v.1.15,2013-03-28 21:56:00,
2013-03-28 18:01:00,50.1,29.6,30.24,WNW,286,1.0,5.0,45,0.00,,,0.00,65,Wunderground v.1.15,2013-03-28 22:01:00,
2013-03-28 18:07:00,49.9,29.4,30.24,West,260,3.0,6.0,45,0.00,,,0.00,51,Wunderground v.1.15,2013-03-28 22:07:00,
2013-03-28 18:12:00,49.9,29.9,30.24,West,269,4.0,6.0,46,0.00,,,0.00,42,Wunderground v.1.15,2013-03-28 22:12:00,
2013-03-28 18:17:00,49.8,29.3,30.24,WNW,296,4.0,7.0,45,0.00,,,0.00,42,Wunderground v.1.15,2013-03-28 22:17:00,
2013-03-28 18:22:00,49.7,29.7,30.24,West,263,2.0,5.0,46,0.00,,,0.00,47,Wunderground v.1.15,2013-03-28 22:22:00,
2013-03-28 18:27:00,49.7,30.3,30.25,WSW,253,1.0,6.0,47,0.00,,,0.00,51,Wunderground v.1.15,2013-03-28 22:27:00,
2013-03-28 18:32:00,49.7,30.3,30.24,WSW,254,6.0,7.0,47,0.00,,,0.00,51,Wunderground v.1.15,2013-03-28 22:32:00,
2013-03-28 18:37:00,49.7,30.8,30.24,WNW,288,4.0,8.0,48,0.00,,,0.00,47,Wunderground v.1.15,2013-03-28 22:37:00,
2013-03-28 18:42:00,49.6,30.7,30.25,WSW,248,5.0,7.0,48,0.00,,,0.00,40,Wunderground v.1.15,2013-03-28 22:42:00,
2013-03-28 18:47:00,49.6,29.6,30.25,West,270,2.0,7.0,46,0.00,,,0.00,37,Wunderground v.1.15,2013-03-28 22:47:00,
2013-03-28 18:52:00,49.6,30.7,30.25,West,277,4.0,5.0,48,0.00,,,0.00,32,Wunderground v.1.15,2013-03-28 22:52:00,
2013-03-28 18:58:00,49.5,30.1,30.25,West,279,3.0,6.0,47,0.00,,,0.00,26,Wunderground v.1.15,2013-03-28 22:58:00,
2013-03-28 19:03:00,49.4,30.5,30.25,West,267,3.0,6.0,48,0.00,,,0.00,23,Wunderground v.1.15,2013-03-28 23:03:00,
2013-03-28 19:08:00,49.3,30.4,30.25,WSW,250,2.0,6.0,48,0.00,,,0.00,19,Wunderground v.1.15,2013-03-28 23:08:00,
2013-03-28 19:13:00,49.2,30.3,30.25,WSW,250,5.0,5.0,48,0.00,,,0.00,16,Wunderground v.1.15,2013-03-28 23:13:00,
2013-03-28 19:19:00,49.1,30.7,30.25,WSW,254,4.0,6.0,49,0.00,,,0.00,12,Wunderground v.1.15,2013-03-28 23:19:00,
2013-03-28 19:24:00,49.0,31.2,30.25,West,261,3.0,8.0,50,0.00,,,0.00,9,Wunderground v.1.15,2013-03-28 23:24:00,
2013-03-28 19:30:00,48.8,30.5,30.25,WSW,245,4.0,8.0,49,0.00,,,0.00,9,Wunderground v.1.15,2013-03-28 23:30:00,
2013-03-28 19:35:00,48.7,30.9,30.25,WSW,240,3.0,6.0,50,0.00,,,0.00,5,Wunderground v.1.15,2013-03-28 23:35:00,
2013-03-28 19:40:00,48.6,30.8,30.25,SW,227,3.0,6.0,50,0.00,,,0.00,5,Wunderground v.1.15,2013-03-28 23:40:00,
2013-03-28 19:45:00,48.5,31.2,30.25,SW,232,1.0,5.0,51,0.00,,,0.00,0,Wunderground v.1.15,2013-03-28 23:45:00,
2013-03-28 19:50:00,48.4,31.1,30.25,WSW,242,2.0,3.0,51,0.00,,,0.00,0,Wunderground v.1.15,2013-03-28 23:50:00,
2013-03-28 19:55:00,48.3,31.0,30.25,WSW,242,1.0,3.0,51,0.00,,,0.00,0,Wunderground v.1.15,2013-03-28 23:55:00,
2013-03-28 20:00:00,48.2,30.9,30.25,WSW,242,2.0,2.0,51,0.00,,,0.00,0,Wunderground v.1.15,2013-03-29 00:00:00,
2013-03-28 20:05:00,48.1,31.3,30.25,WSW,242,2.0,4.0,52,0.00,,,0.00,0,Wunderground v.1.15,2013-03-29 00:05:00,
2013-03-28 20:10:00,48.0,31.2,30.25,WSW,242,0.0,3.0,52,0.00,,,0.00,0,Wunderground v.1.15,2013-03-29 00:10:00,
2013-03-28 20:15:00,47.8,31.5,30.25,WSW,242,1.0,3.0,53,0.00,,,0.00,0,Wunderground v.1.15,2013-03-29 00:15:00,
2013-03-28 20:21:00,47.6,31.3,30.25,WSW,242,3.0,3.0,53,0.00,,,0.00,0,Wunderground v.1.15,2013-03-29 00:21:00,
2013-03-28 20:26:00,47.5,31.7,30.25,WSW,242,0.0,3.0,54,0.00,,,0.00,0,Wunderground v.1.15,2013-03-29 00:26:00,
2013-03-28 20:32:00,47.3,31.5,30.25,WSW,242,0.0,2.0,54,0.00,,,0.00,0,Wunderground v.1.15,2013-03-29 00:32:00,
2013-03-28 20:37:00,47.2,31.4,30.26,WSW,242,3.0,4.0,54,0.00,,,0.00,0,Wunderground v.1.15,2013-03-29 00:37:00,
2013-03-28 20:42:00,47.1,31.7,30.26,WSW,242,1.0,1.0,55,0.00,,,0.00,0,Wunderground v.1.15,2013-03-29 00:42:00,
2013-03-28 20:47:00,47.1,31.7,30.26,WSW,242,4.0,4.0,55,0.00,,,0.00,0,Wunderground v.1.15,2013-03-29 00:47:00,
2013-03-28 20:52:00,47.0,31.2,30.26,WSW,242,4.0,6.0,54,0.00,,,0.00,0,Wunderground v.1.15,2013-03-29 00:52:00,
2013-03-28 20:57:00,47.0,31.2,30.26,WSW,242,5.0,6.0,54,0.00,,,0.00,0,Wunderground v.1.15,2013-03-29 00:57:00,
2013-03-28 21:02:00,47.0,31.2,30.26,WSW,245,1.0,5.0,54,0.00,,,0.00,0,Wunderground v.1.15,2013-03-29 01:02:00,
2013-03-28 21:08:00,47.0,31.2,30.26,WSW,246,4.0,5.0,54,0.00,,,0.00,0,Wunderground v.1.15,2013-03-29 01:08:00,
2013-03-28 21:13:00,47.0,31.2,30.26,WSW,246,4.0,4.0,54,0.00,,,0.00,0,Wunderground v.1.15,2013-03-29 01:13:00,
2013-03-28 21:18:00,47.0,31.2,30.26,WSW,245,2.0,5.0,54,0.00,,,0.00,0,Wunderground v.1.15,2013-03-29 01:18:00,
2013-03-28 21:24:00,46.8,31.0,30.26,WSW,245,3.0,4.0,54,0.00,,,0.00,0,Wunderground v.1.15,2013-03-29 01:24:00,
2013-03-28 21:29:00,46.7,30.9,30.26,WSW,245,3.0,5.0,54,0.00,,,0.00,0,Wunderground v.1.15,2013-03-29 01:29:00,
2013-03-28 21:34:00,46.7,30.9,30.26,WSW,245,4.0,6.0,54,0.00,,,0.00,0,Wunderground v.1.15,2013-03-29 01:34:00,
2013-03-28 21:39:00,46.6,30.8,30.27,WSW,245,3.0,6.0,54,0.00,,,0.00,0,Wunderground v.1.15,2013-03-29 01:39:00,
2013-03-28 21:45:00,46.5,31.2,30.27,WSW,245,1.0,4.0,55,0.00,,,0.00,0,Wunderground v.1.15,2013-03-29 01:45:00,
2013-03-28 21:50:00,46.0,32.0,30.27,SSW,211,4.0,6.0,58,0.00,,,0.00,0,Wunderground v.1.15,2013-03-29 01:50:00,
2013-03-28 21:55:00,45.2,32.9,30.27,SSW,196,3.0,6.0,62,0.00,,,0.00,0,Wunderground v.1.15,2013-03-29 01:55:00,
2013-03-28 22:00:00,44.6,33.9,30.27,WSW,257,6.0,9.0,66,0.00,,,0.00,0,Wunderground v.1.15,2013-03-29 02:00:00,
2013-03-28 22:05:00,44.2,33.9,30.27,WSW,242,7.0,9.0,67,0.00,,,0.00,0,Wunderground v.1.15,2013-03-29 02:05:00,
2013-03-28 22:10:00,43.8,34.3,30.27,SW,236,11.0,11.0,69,0.00,,,0.00,0,Wunderground v.1.15,2013-03-29 02:10:00,
2013-03-28 22:15:00,43.6,34.1,30.28,SW,235,9.0,11.0,69,0.00,,,0.00,0,Wunderground v.1.15,2013-03-29 02:15:00,
2013-03-28 22:20:00,43.3,34.2,30.28,WSW,246,7.0,8.0,70,0.00,,,0.00,0,Wunderground v.1.15,2013-03-29 02:20:00,
2013-03-28 22:25:00,43.2,34.1,30.28,SW,236,9.0,9.0,70,0.00,,,0.00,0,Wunderground v.1.15,2013-03-29 02:25:00,
2013-03-28 22:30:00,43.0,34.2,30.28,SW,219,3.0,8.0,71,0.00,,,0.00,0,Wunderground v.1.15,2013-03-29 02:30:00,
2013-03-28 22:36:00,42.7,33.9,30.28,SW,228,6.0,8.0,71,0.00,,,0.00,0,Wunderground v.1.15,2013-03-29 02:36:00,
2013-03-28 22:41:00,42.5,33.8,30.28,WSW,251,6.0,10.0,71,0.00,,,0.00,0,Wunderground v.1.15,2013-03-29 02:41:00,
2013-03-28 22:46:00,42.3,33.6,30.28,WSW,246,6.0,10.0,71,0.00,,,0.00,0,Wunderground v.1.15,2013-03-29 02:46:00,
2013-03-28 22:51:00,42.0,33.6,30.28,SW,231,6.0,8.0,72,0.00,,,0.00,0,Wunderground v.1.15,2013-03-29 02:51:00,
2013-03-28 22:56:00,41.6,33.2,30.28,SW,234,8.0,10.0,72,0.00,,,0.00,0,Wunderground v.1.15,2013-03-29 02:56:00,
2013-03-28 23:01:00,41.4,33.4,30.28,WSW,250,7.0,10.0,73,0.00,,,0.00,0,Wunderground v.1.15,2013-03-29 03:01:00,
2013-03-28 23:06:00,41.1,33.1,30.28,WSW,256,9.0,12.0,73,0.00,,,0.00,0,Wunderground v.1.15,2013-03-29 03:06:00,
2013-03-28 23:12:00,40.9,32.9,30.28,SW,216,8.0,11.0,73,0.00,,,0.00,0,Wunderground v.1.15,2013-03-29 03:12:00,
2013-03-28 23:17:00,40.6,32.6,30.28,SW,234,6.0,13.0,73,0.00,,,0.00,0,Wunderground v.1.15,2013-03-29 03:17:00,
2013-03-28 23:22:00,40.3,32.7,30.28,SW,223,8.0,9.0,74,0.00,,,0.00,0,Wunderground v.1.15,2013-03-29 03:22:00,
2013-03-28 23:27:00,40.0,32.7,30.28,SW,230,3.0,10.0,75,0.00,,,0.00,0,Wunderground v.1.15,2013-03-29 03:27:00,
2013-03-28 23:33:00,39.8,32.5,30.28,SW,227,8.0,9.0,75,0.00,,,0.00,0,Wunderground v.1.15,2013-03-29 03:33:00,
2013-03-28 23:38:00,39.6,32.3,30.28,SW,230,5.0,11.0,75,0.00,,,0.00,0,Wunderground v.1.15,2013-03-29 03:38:00,
2013-03-28 23:43:00,39.4,32.5,30.28,SW,232,8.0,14.0,76,0.00,,,0.00,0,Wunderground v.1.15,2013-03-29 03:43:00,
2013-03-28 23:48:00,39.3,32.4,30.28,WSW,251,9.0,14.0,76,0.00,,,0.00,0,Wunderground v.1.15,2013-03-29 03:48:00,
2013-03-28 23:54:00,39.1,32.2,30.28,WSW,243,8.0,11.0,76,0.00,,,0.00,0,Wunderground v.1.15,2013-03-29 03:54:00,
2013-03-28 23:59:00,38.9,32.0,30.28,WSW,251,6.0,11.0,76,0.00,,,0.00,0,Wunderground v.1.15,2013-03-29 03:59:00,